Presure
122 101 119 121 135 130 129 140 163 130 152 147 135 127 115 122 132 150 137 141 143 334 154 284 502 499 480 467 459 407 374 351 336 340 304 306 298 300 334 268 228 219 218 188 182 199 212
113 126 109 119 117 107 150 140 157 155 177 162 105 120 102 158 121 124 129 177 193 182 249 402 502 491 500 480 443 405 379 360 335 329 317 308 287 297 324 293 230 204 206 184 188 225 219
112 122 116 116 134 103 122 104 169 119 144 131 120 132 114 120 128 137 133 159 133 124 278 414 501 491 498 500 459 422 399 372 326 318 325 303 299 271 329 301 278 215 197 220 194 189 229
121 113 117 95 126 136 158 158 128 150 133 147 105 124 109 129 111 113 125 137 140 223 152 211 510 499 509 509 507 419 411 364 325 315 323 314 301 277 312 307 282 268 215 201 204 203 230
119 113 127 127 112 125 144 157 148 137 163 139 129 144 104 124 120 140 143 123 144 131 148 245 523 435 506 515 423 420 400 356 324 315 319 333 302 290 275 307 289 277 267 238 211 204 211
123 124 126 119 145 133 137 158 121 155 128 136 162 137 160 147 151 120 175 148 160 168 310 181 384 474 478 512 424 408 419 346 322 309 324 322 301 296 275 302 294 128 273 253 227 220 207
121 125 118 126 128 132 132 154 154 134 157 151 140 154 123 151 123 114 150 206 167 155 242 297 193 370 488 489 433 426 429 346 320 307 315 340 333 300 283 279 301 290 278 259 239 226 215
120 124 126 122 136 132 134 149 157 145 134 127 154 157 152 139 124 154 125 109 174 113 150 264 309 296 487 513 477 422 430 354 323 307 319 331 333 339 287 281 292 288 278 264 250 237 230
117 116 125 125 113 131 130 111 130 135 154 145 141 143 138 102 134 129 109 141 135 181 173 199 288 287 299 527 507 464 394 347 323 314 314 336 338 333 290 287 290 313 277 272 261 248 233
117 117 126 117 138 131 125 130 141 134 157 141 149 154 140 126 130 117 134 135 115 182 161 160 146 297 280 292 386 375 348 344 318 307 315 304 325 322 329 291 279 276 286 276 270 257 242
118 137 121 146 140 127 134 203 134 149 149 134 134 143 166 178 170 134 149 109 168 113 156 168 283 224 294 278 299 348 348 337 321 314 306 295 311 341 336 323 282 270 277 292 272 264 251
124 117 122 126 145 195 128 144 136 149 133 160 144 122 128 164 168 160 171 159 141 181 167 199 174 274 247 277 270 270 314 355 321 307 325 318 305 323 330 312 296 278 278 276 280 269 260
171 238 126 118 131 147 147 200 158 136 126 148 138 146 148 131 214 153 135 168 152 167 201 181 208 249 185 263 270 283 290 360 339 331 313 315 315 311 322 314 308 295 271 278 278 280 272
131 106 156 122 139 151 140 159 130 136 176 176 133 190 154 135 152 135 162 140 139 159 177 219 175 223 237 264 266 264 298 296 352 329 326 303 299 307 304 338 335 321 277 266 272 276 268
142 214 183 127 153 159 175 142 148 117 142 149 127 140 150 159 156 151 124 101 148 152 213 167 176 246 241 182 255 236 272 307 335 341 332 324 328 335 317 309 306 328 306 267 258 266 269
205 158 181 158 132 165 176 149 156 161 147 145 136 144 150 163 156 124 149 172 140 183 165 147 187 173 160 162 232 262 224 266 358 349 341 323 315 303 317 294 302 308 310 282 260 261 264
140 133 169 132 199 212 146 207 191 112 137 143 152 144 123 157 131 136 162 124 156 153 172 152 176 207 208 184 229 181 142 168 309 339 340 324 309 309 300 299 298 296 291 293 279 255 252
258 136 185 142 224 129 179 124 146 130 135 129 134 163 135 144 102 164 161 137 160 160 146 180 179 180 225 132 256 258 141 133 315 349 331 331 317 303 302 304 305 294 289 282 280 273 257
215 134 229 167 144 225 123 143 116 146 141 125 148 138 145 143 139 159 132 111 144 156 176 129 162 191 175 230 220 205 171 201 333 357 332 319 310 312 300 298 293 297 295 283 278 278 273
173 248 143 247 230 140 177 170 154 136 122 231 143 147 143 150 155 150 119 124 142 149 170 143 169 186 172 232 239 221 271 386 395 358 339 315 310 312 307 298 294 292 291 302 297 286 274
148 244 158 196 224 135 143 140 130 166 134 140 149 147 155 149 155 144 128 133 152 146 160 140 163 198 159 225 182 195 214 456 422 372 342 327 307 300 320 311 301 285 292 296 290 281 280
199 116 241 240 136 142 177 140 191 160 140 141 139 147 151 154 145 143 137 117 114 166 151 118 134 202 186 232 160 176 198 320 445 137 158 320 309 300 297 328 315 314 275 294 295 289 290
194 205 247 209 133 230 134 140 223 232 140 138 232 151 153 111 152 146 129 154 129 163 173 184 169 134 182 224 176 234 281 325 421 425 373 308 314 302 295 299 309 338 327 316 299 286 287
196 167 188 167 236 132 164 182 136 196 144 137 153 150 147 167 155 160 147 117 131 108 135 177 154 196 209 158 224 218 257 454 298 310 162 274 317 306 297 291 307 290 308 328 326 314 320
179 162 245 238 227 243 139 154 144 149 222 137 143 175 146 157 111 98 131 90 158 116 143 131 185 168 166 157 184 198 201 523 251 454 186 184 330 304 298 291 288 287 290 302 299 297 312
194 207 186 237 228 240 135 140 147 138 128 138 139 179 148 155 138 151 146 101 149 119 165 204 225 167 150 159 215 249 182 418 282 156 146 199 330 319 302 288 280 286 288 288 290 294 285
190 206 249 179 226 213 222 140 226 229 142 144 142 142 144 152 146 125 156 149 114 133 155 170 200 138 192 195 197 179 217 295 154 157 142 147 153 314 303 291 282 286 286 294 288 281 276
191 200 250 242 237 226 227 227 220 176 227 174 222 188 176 159 159 135 145 148 132 144 165 145 152 149 159 224 188 213 242 326 149 154 375 144 255 327 302 294 280 287 271 294 287 284 283
192 198 218 254 249 235 232 147 132 135 224 210 202 189 175 162 167 147 137 170 136 140 114 116 135 195 173 194 164 170 246 340 426 404 402 148 371 328 312 295 283 287 291 281 289 291 288
Wind_Speed
24 21 22 24 27 24 24 25 39 23 28 28 22 37 33 44 54 49 58 70 68 111 62 78 38 20 4 21 43 55 65 65 63 64 70 74 75 78 81 88 91 83 85 79 76 81 88
27 26 22 25 22 25 34 25 33 34 48 34 22 37 23 48 36 46 57 72 75 68 97 93 34 25 3 20 50 64 63 60 58 60 66 70 73 74 78 87 90 80 82 78 79 93 91
27 27 24 23 28 26 24 29 40 31 27 27 36 30 34 50 56 60 51 55 61 47 98 91 34 26 9 11 50 57 67 58 56 58 63 67 70 74 74 80 85 86 81 91 81 78 94
28 27 26 24 26 28 37 33 27 29 22 27 17 34 35 45 40 48 63 68 70 87 61 88 30 25 12 6 36 56 55 57 56 56 61 64 69 72 72 78 83 88 86 81 84 84 92
29 26 26 28 26 24 28 33 30 25 38 26 32 36 25 25 49 47 49 55 55 61 68 84 29 23 13 7 42 38 47 57 55 54 57 61 64 67 70 75 81 84 84 88 86 84 86
29 29 28 26 27 28 27 35 20 35 24 26 40 26 56 31 36 54 55 49 56 75 102 62 76 33 25 17 37 37 41 54 51 50 54 55 57 62 66 69 73 33 79 85 89 91 87
30 30 27 30 26 25 24 33 32 22 36 34 25 32 37 13 46 50 34 84 60 57 93 98 75 42 20 14 33 36 37 52 46 45 46 51 55 59 64 66 69 74 77 80 88 91 88
32 31 31 27 32 28 26 32 34 28 27 28 36 44 37 35 45 36 45 39 57 38 65 87 100 94 28 15 39 30 34 44 42 39 43 49 53 55 61 61 65 71 74 78 85 91 91
31 30 31 30 15 27 25 21 23 28 32 30 30 27 25 29 24 49 41 47 58 60 74 89 91 92 92 21 30 24 30 25 26 30 33 40 43 49 55 58 59 65 70 76 82 84 87
32 28 34 19 35 29 21 24 29 26 33 27 34 41 28 31 45 32 41 48 41 63 49 54 49 98 88 89 35 22 16 14 15 16 20 24 36 42 50 54 57 62 68 73 76 79 85
33 33 29 30 33 25 26 56 25 30 30 25 23 27 47 53 54 27 31 36 36 47 33 68 93 80 96 87 83 53 23 9 4 12 18 22 28 42 46 49 58 61 62 66 72 76 78
40 29 30 32 31 50 24 31 24 31 23 35 30 21 16 47 52 37 54 39 33 67 46 79 74 91 84 88 82 72 63 12 6 2 15 20 26 33 41 47 55 59 61 64 68 74 75
42 56 37 20 34 31 32 50 36 26 18 27 26 33 33 21 60 43 22 43 25 45 74 63 64 88 73 83 85 83 74 14 7 2 6 14 24 32 37 43 49 54 57 60 63 64 67
26 29 39 22 37 35 29 36 23 27 37 44 22 48 40 18 40 18 42 20 34 33 51 85 52 75 69 84 84 79 76 66 8 3 11 20 20 26 32 32 36 43 58 60 59 60 64
41 45 35 28 39 37 44 30 31 20 27 28 17 30 36 39 42 29 30 25 24 39 78 38 48 75 73 64 80 61 81 68 31 9 10 15 26 31 33 36 38 35 43 57 59 59 62
45 31 45 41 30 37 40 32 31 31 33 25 21 32 36 41 44 27 38 57 28 63 39 37 71 38 29 30 70 82 63 76 14 14 15 16 21 27 32 35 36 36 44 51 58 59 60
46 41 43 36 46 47 32 46 46 20 26 23 30 31 14 39 11 12 48 27 39 29 46 33 49 85 72 64 75 61 25 36 45 20 19 22 27 28 34 34 39 42 45 48 53 59 62
40 46 44 41 51 25 39 19 29 29 24 13 21 33 20 33 14 47 47 18 47 46 27 69 54 53 71 21 97 93 27 22 49 26 24 28 27 30 34 37 40 43 47 48 51 53 59
40 39 44 42 38 47 20 32 16 31 34 12 31 27 33 30 21 44 5 32 29 37 62 33 38 74 56 70 77 53 37 48 40 28 28 29 30 34 35 38 40 41 48 53 55 53 53
43 40 45 46 50 36 40 36 32 32 17 48 33 34 32 35 41 29 21 19 44 32 57 30 42 71 46 82 82 82 100 42 34 32 32 32 32 37 39 40 44 46 50 51 53 52 54
33 37 34 31 41 29 35 24 29 37 31 32 37 35 37 36 39 32 13 17 47 30 49 29 55 62 50 75 67 69 79 30 39 38 36 36 35 37 46 44 44 47 48 48 49 54 53
38 24 38 39 34 36 41 32 40 35 32 33 32 36 37 38 30 30 19 24 26 60 35 24 35 57 64 77 48 71 77 71 34 25 30 36 37 38 37 43 46 45 49 44 43 48 50
38 37 38 40 29 45 27 31 45 44 34 35 37 35 37 15 39 30 24 46 17 58 63 53 59 39 60 74 55 75 94 75 27 36 46 34 39 40 38 35 34 34 43 48 50 51 53
37 40 36 42 45 28 39 40 31 38 35 35 32 35 36 25 41 43 38 24 19 27 27 67 32 64 70 41 80 74 84 28 19 21 28 25 44 43 39 35 28 30 35 36 38 42 44
33 42 37 38 40 40 34 34 37 34 41 34 35 35 37 38 15 10 20 9 49 24 23 29 64 47 42 36 51 63 62 20 39 32 21 24 47 44 41 37 32 33 34 31 30 31 28
33 32 30 37 33 35 31 28 36 37 29 34 33 36 37 40 30 33 36 20 42 22 60 58 69 51 35 51 82 102 69 27 13 27 25 21 47 48 43 38 34 36 36 32 29 28 28
34 32 36 30 36 37 34 33 36 36 38 39 36 38 35 39 36 23 46 35 24 29 40 34 55 33 55 76 69 50 74 95 28 31 26 31 33 49 45 40 35 38 38 35 29 28 25
35 31 38 40 40 37 38 36 35 38 35 38 35 33 30 39 41 25 27 43 32 36 59 44 35 37 42 85 53 81 97 94 26 32 39 30 25 50 43 40 38 40 35 32 27 28 29
35 33 33 42 42 41 39 35 31 34 35 35 26 26 34 40 36 38 27 49 22 26 21 30 23 60 56 73 39 48 99 93 14 26 30 32 41 49 46 40 40 39 37 28 28 29 31
Wind_Direction
268 262 277 285 301 305 311 321 336 286 323 320 330 328 308 320 319 325 341 324 336 2 346 2 358 3 213 191 173 185 205 202 202 201 204 206 207 207 208 210 218 217 215 219 221 222 222
261 279 278 286 287 292 320 322 331 330 339 341 325 315 338 330 348 348 330 350 353 359 2 4 359 4 355 195 179 189 205 199 198 199 202 205 207 207 206 207 217 217 216 219 221 218 221
261 272 274 283 301 290 307 304 333 294 328 294 308 298 323 317 314 315 341 333 340 350 4 5 3 6 360 185 183 185 201 191 194 196 200 204 204 207 209 207 209 218 218 216 221 223 219
263 267 277 293 298 305 313 324 310 328 314 334 306 299 336 301 338 340 331 322 330 5 356 12 10 9 7 169 185 187 198 185 189 193 197 200 202 205 206 207 208 210 218 222 221 223 219
262 266 281 287 294 302 313 325 326 315 337 321 320 337 318 320 317 335 348 342 343 343 345 1 20 17 56 118 161 179 188 179 186 192 196 201 202 203 208 207 208 211 210 213 220 223 223
263 271 278 282 303 304 309 324 303 331 304 324 344 309 333 318 333 314 347 331 9 356 11 12 21 30 48 68 167 172 189 177 183 190 195 199 200 203 208 210 210 214 211 212 217 219 222
261 268 273 284 292 303 308 319 323 319 327 334 324 334 291 337 304 326 329 346 341 333 6 15 13 26 47 65 170 179 184 174 181 188 192 197 202 203 206 209 211 211 213 214 215 219 221
257 267 272 279 292 298 306 312 321 324 327 307 342 341 344 307 318 336 329 349 13 348 355 6 18 25 42 70 167 157 171 171 178 186 193 200 203 206 207 209 212 213 213 215 215 218 219
254 263 269 277 273 293 298 279 309 314 331 332 327 338 330 330 308 323 343 328 335 12 15 11 17 22 26 99 136 150 161 163 182 191 199 203 204 208 209 211 213 214 215 216 217 218 221
250 256 266 261 282 287 291 303 311 310 326 322 332 336 340 286 330 345 317 321 360 353 351 12 338 18 21 26 49 64 85 149 174 197 199 196 203 211 211 212 212 213 217 218 219 218 220
249 258 262 276 277 285 290 298 309 313 319 319 321 337 340 336 342 319 340 339 12 344 345 18 16 15 18 26 26 33 37 46 177 206 203 209 207 214 215 215 212 214 216 220 219 220 220
248 257 264 270 271 285 288 295 301 307 309 325 327 282 329 338 339 338 338 340 6 347 17 5 12 14 16 18 21 25 25 40 33 166 217 220 212 212 215 213 212 216 216 216 219 220 220
257 261 260 260 274 275 280 290 296 299 301 321 323 333 338 317 337 339 330 4 356 16 358 10 13 11 14 14 14 15 15 20 16 306 200 233 223 217 216 214 214 216 218 218 220 221 223
251 258 259 274 267 271 280 286 295 298 307 308 319 322 331 329 341 342 347 327 335 18 9 353 18 13 7 9 10 11 9 9 298 279 226 209 216 226 220 220 218 216 214 217 218 219 220
253 256 258 266 261 267 281 283 287 276 305 313 295 324 330 331 340 351 314 352 346 354 351 27 10 11 6 12 8 4 5 3 358 288 241 217 207 211 214 215 217 221 215 218 219 218 219
252 254 256 260 267 271 276 278 280 293 298 313 303 321 327 330 335 308 349 338 356 343 356 356 1 357 348 354 8 3 357 360 305 256 236 216 215 209 217 212 215 214 213 216 219 221 221
242 259 252 260 257 264 267 277 285 289 303 314 314 320 288 332 335 18 340 327 351 10 0 353 2 346 2 4 0 357 333 349 344 295 239 217 210 210 210 213 215 212 213 216 218 220 224
255 249 247 252 256 269 265 280 273 285 299 315 322 315 334 334 324 326 340 341 347 353 343 346 10 349 5 325 360 357 322 349 336 267 257 231 219 211 212 214 215 216 216 215 218 219 223
270 256 248 250 253 257 262 265 268 283 294 300 308 301 323 332 324 331 333 313 2 347 341 332 4 343 6 3 357 351 336 342 323 254 248 237 227 223 213 214 213 216 218 218 219 219 223
248 251 243 250 251 260 263 271 271 285 280 294 311 311 305 322 321 327 291 325 329 340 342 344 349 340 8 355 359 355 351 320 251 248 238 233 228 228 224 215 216 215 217 220 220 221 224
251 251 253 241 251 260 263 270 282 279 292 303 303 308 310 318 322 320 312 326 332 351 342 337 341 349 341 353 360 357 355 249 238 239 234 229 223 225 228 224 218 216 218 221 219 219 219
251 235 247 245 257 258 261 273 278 282 288 301 311 303 308 311 323 332 317 307 331 330 3 340 326 349 352 349 342 353 350 345 235 330 331 222 220 222 225 226 230 232 221 216 218 221 221
247 256 246 248 257 254 250 268 272 275 282 297 297 295 304 265 318 308 310 328 329 331 329 338 348 337 355 358 357 351 351 346 226 226 219 224 214 219 221 223 224 230 236 236 224 221 219
246 252 246 252 252 260 259 263 275 272 277 297 305 300 306 286 311 312 320 271 358 317 346 327 15 350 359 341 339 357 353 320 249 250 326 243 212 215 217 219 221 218 225 227 227 228 232
242 254 243 245 250 253 261 265 268 275 278 297 302 294 303 300 301 316 316 318 321 317 359 327 335 357 343 342 353 355 348 204 344 208 311 316 210 214 214 215 212 222 228 223 214 220 221
239 252 244 244 245 249 265 269 269 274 285 294 298 293 299 300 300 303 317 333 324 300 324 346 347 336 349 333 334 357 349 336 280 318 327 298 210 211 211 215 214 223 228 228 226 222 226
235 250 244 248 244 247 252 269 262 267 276 283 291 293 300 302 303 308 304 318 277 326 323 348 348 342 357 338 339 351 347 352 314 314 320 321 323 213 208 212 212 224 229 227 227 229 231
230 242 240 243 241 247 253 257 262 270 272 280 288 281 276 289 295 316 303 316 311 317 320 323 339 342 351 345 354 339 352 351 312 309 217 324 260 208 213 210 214 224 234 228 229 230 236
226 236 247 241 244 245 250 266 270 275 272 280 278 267 272 285 291 307 315 309 312 332 318 318 330 343 342 343 342 344 353 350 272 228 232 329 214 211 210 214 220 224 228 230 227 230 234